Satellite: DTUSAT-2
Catalog number: 40030
Epoch time: 14261.40924870
Element set: 245
Inclination: 097.9691 deg
RA of node: 156.1447 deg
Eccentricity: 0.0012884
Arg of perigee: 355.4247 deg
Mean anomaly: 004.6826 deg
Mean motion: 14.85085908 rev/day
Decay rate: 2.675e-05 rev/day^2
Epoch rev: 1342
Checksum: 303
Satellite: ANTELSAT
Catalog number: 40034
Epoch time: 14261.50179187
Element set: 252
Inclination: 097.9664 deg
RA of node: 154.2857 deg
Eccentricity: 0.0060479
Arg of perigee: 269.6288 deg
Mean anomaly: 089.7979 deg
Mean motion: 14.71396907 rev/day
Decay rate: 2.251e-05 rev/day^2
Epoch rev: 1332
Checksum: 335
/EX
SB KEPS @ AMSAT $ORB14261.W
Orbital Elements 14261.WEATHER
HR AMSAT ORBITAL ELEMENTS FOR WEATHER SATELLITES
FROM WA5QGD FORT WORTH,TX September 18, 2014
BID: ORB14261.W
TO ALL RADIO AMATEURS BT
Satellite: MET-2/21
Catalog number: 22782
Epoch time: 14261.49142264
Element set: 163
Inclination: 082.5457 deg
RA of node: 099.2784 deg
Eccentricity: 0.0022113
Arg of perigee: 006.8582 deg
Mean anomaly: 054.7725 deg
Mean motion: 13.83743608 rev/day
Decay rate: 5.9e-07 rev/day^2
Epoch rev: 6302
Checksum: 299
Satellite: OKEAN-4
Catalog number: 23317
Epoch time: 14261.15926567
Element set: 643
Inclination: 082.5410 deg
RA of node: 340.7562 deg
Eccentricity: 0.0021756
Arg of perigee: 148.7261 deg
Mean anomaly: 245.7946 deg
Mean motion: 14.85712398 rev/day
Decay rate: 1.195e-05 rev/day^2
Epoch rev: 7691
Checksum: 318
Satellite: NOAA-14
Catalog number: 23455
Epoch time: 14261.26835788
Element set: 901
Inclination: 098.7744 deg
RA of node: 343.0336 deg
Eccentricity: 0.0010461
Arg of perigee: 132.2516 deg
Mean anomaly: 300.7363 deg
Mean motion: 14.13987027 rev/day
Decay rate: 7.0e-08 rev/day^2
Epoch rev: 1710
Checksum: 280
Satellite: NOAA-15
Catalog number: 25338
Epoch time: 14261.48157111
Element set: 338
Inclination: 098.7590 deg
RA of node: 255.1897 deg
Eccentricity: 0.0009797
Arg of perigee: 232.6932 deg
Mean anomaly: 240.1926 deg
Mean motion: 14.25468771 rev/day
Decay rate: 1.82e-06 rev/day^2
Epoch rev: 85013
Checksum: 324
Satellite: RESURS
Catalog number: 25394
Epoch time: 14261.51876817
Element set: 750
Inclination: 098.4245 deg
RA of node: 222.0102 deg
Eccentricity: 0.0001522
Arg of perigee: 040.5997 deg
Mean anomaly: 067.7315 deg
Mean motion: 14.24399022 rev/day
Decay rate: 1.2e-07 rev/day^2
Epoch rev: 84160
Checksum: 274
Satellite: FENGYUN1
Catalog number: 25730
Epoch time: 14261.45749155
Element set: 240
Inclination: 098.9176 deg
RA of node: 222.0099 deg
Eccentricity: 0.0020738
Arg of perigee: 203.5677 deg
Mean anomaly: 271.6018 deg
Mean motion: 14.12089981 rev/day
Decay rate: 2.103e-05 rev/day^2
Epoch rev: 79068
Checksum: 304
Satellite: OKEAN-0
Catalog number: 25860
Epoch time: 14261.02015888
Element set: 354
Inclination: 098.0543 deg
RA of node: 224.3944 deg
Eccentricity: 0.0002039
Arg of perigee: 108.1328 deg
Mean anomaly: 300.1358 deg
Mean motion: 14.75391685 rev/day
Decay rate: 8.47e-06 rev/day^2
Epoch rev: 81584
Checksum: 297
Satellite: NOAA-16
Catalog number: 26536
Epoch time: 14261.40772013
Element set: 835
Inclination: 098.9813 deg
RA of node: 322.1325 deg
Eccentricity: 0.0009470
Arg of perigee: 280.2794 deg
Mean anomaly: 079.7310 deg
Mean motion: 14.13037334 rev/day
Decay rate: 4.0e-07 rev/day^2
Epoch rev: 72127
Checksum: 281
Satellite: NOAA-17
Catalog number: 27453
Epoch time: 14261.45503770
Element set: 727
Inclination: 098.3197 deg
RA of node: 256.2820 deg
Eccentricity: 0.0010567
Arg of perigee: 258.0368 deg
Mean anomaly: 101.9628 deg
Mean motion: 14.24776959 rev/day
Decay rate: 1.67e-06 rev/day^2
Epoch rev: 63596
Checksum: 337
Satellite: NOAA-18
Catalog number: 28654
Epoch time: 14261.50157287
Element set: 244
Inclination: 099.1583 deg
RA of node: 242.9200 deg
Eccentricity: 0.0014264
Arg of perigee: 006.9732 deg
Mean anomaly: 100.0257 deg
Mean motion: 14.12062769 rev/day
Decay rate: 2.12e-06 rev/day^2
Epoch rev: 48073
Checksum: 281
Satellite: NOAA-19
Catalog number: 33591
Epoch time: 14261.48039315
Element set: 381
Inclination: 098.9527 deg
RA of node: 206.2718 deg
Eccentricity: 0.0013425
Arg of perigee: 212.4879 deg
Mean anomaly: 256.0300 deg
Mean motion: 14.11762396 rev/day
Decay rate: 3.13e-06 rev/day^2
Epoch rev: 28915
Checksum: 302
/EX
SB KEPS @ AMSAT $ORB14261.M
Orbital Elements 14261.MISC
HR AMSAT ORBITAL ELEMENTS FOR MANNED AND MISCELLANEOUS SATELLITES
FROM WA5QGD FORT WORTH,TX September 18, 2014
BID: ORB14261.M
TO ALL RADIO AMATEURS BT
Satellite: HUBBLE
Catalog number: 20580
Epoch time: 14260.14219856
Element set: 112
Inclination: 028.4698 deg
RA of node: 152.5176 deg
Eccentricity: 0.0002909
Arg of perigee: 187.0819 deg
Mean anomaly: 298.6454 deg
Mean motion: 15.05745462 rev/day
Decay rate: 3.065e-05 rev/day^2
Epoch rev: 13859
Checksum: 311
Satellite: ISS
Catalog number: 25544
Epoch time: 14261.70339876
Element set: 105
Inclination: 051.6471 deg
RA of node: 356.0790 deg
Eccentricity: 0.0002430
Arg of perigee: 111.4897 deg
Mean anomaly: 005.3280 deg
Mean motion: 15.50422422 rev/day
Decay rate: 1.8606e-04 rev/day^2
Epoch rev: 90583
Checksum: 275
Satellite: CO-58
Catalog number: 28895
Epoch time: 14261.49760694
Element set: 870
Inclination: 097.8286 deg
RA of node: 098.5040 deg
Eccentricity: 0.0018659
Arg of perigee: 078.0398 deg
Mean anomaly: 282.2895 deg
Mean motion: 14.62024536 rev/day
Decay rate: 8.52e-06 rev/day^2
Epoch rev: 47388
Checksum: 373
Satellite: FALCON
Catalog number: 30776
Epoch time: 14260.39920237
Element set: 955
Inclination: 035.4281 deg
RA of node: 262.4116 deg
Eccentricity: 0.0000645
Arg of perigee: 340.4171 deg
Mean anomaly: 130.1318 deg
Mean motion: 15.17373289 rev/day
Decay rate: 9.961e-05 rev/day^2
Epoch rev: 41474
Checksum: 286
Satellite: MAST
Catalog number: 31126
Epoch time: 14260.81268446
Element set: 144
Inclination: 097.9246 deg
RA of node: 236.9289 deg
Eccentricity: 0.0093186
Arg of perigee: 066.0075 deg
Mean anomaly: 344.2809 deg
Mean motion: 14.55388326 rev/day
Decay rate: 1.031e-05 rev/day^2
Epoch rev: 39386
Checksum: 318
Satellite: CAPE1
Catalog number: 31130
Epoch time: 14261.42508656
Element set: 150
Inclination: 097.9459 deg
RA of node: 234.2821 deg
Eccentricity: 0.0100236
Arg of perigee: 082.3202 deg
Mean anomaly: 278.9366 deg
Mean motion: 14.54585757 rev/day
Decay rate: 1.287e-05 rev/day^2
Epoch rev: 39336
Checksum: 301
Satellite: COMPASS
Catalog number: 32787
Epoch time: 14260.75710488
Element set: 37
Inclination: 097.6931 deg
RA of node: 311.6138 deg
Eccentricity: 0.0012737
Arg of perigee: 230.4292 deg
Mean anomaly: 129.5801 deg
Mean motion: 14.88326622 rev/day
Decay rate: 3.310e-05 rev/day^2
Epoch rev: 34595
Checksum: 299
Satellite: AAUSAT2
Catalog number: 32788
Epoch time: 14261.11919610
Element set: 25
Inclination: 097.6938 deg
RA of node: 313.0679 deg
Eccentricity: 0.0012334
Arg of perigee: 226.9434 deg
Mean anomaly: 133.0751 deg
Mean motion: 14.89080001 rev/day
Decay rate: 3.457e-05 rev/day^2
Epoch rev: 34607
Checksum: 291
Satellite: DO-64
Catalog number: 32789
Epoch time: 14260.39963137
Element set: 66
Inclination: 097.7131 deg
RA of node: 319.7846 deg
Eccentricity: 0.0011456
Arg of perigee: 210.4099 deg
Mean anomaly: 278.2966 deg
Mean motion: 14.94268785 rev/day
Decay rate: 8.861e-05 rev/day^2
Epoch rev: 34626
Checksum: 360
Satellite: CO-66
Catalog number: 32791
Epoch time: 14260.39551160
Element set: 19
Inclination: 097.6925 deg
RA of node: 309.8309 deg
Eccentricity: 0.0013283
Arg of perigee: 236.2884 deg
Mean anomaly: 123.7067 deg
Mean motion: 14.86896794 rev/day
Decay rate: 3.294e-05 rev/day^2
Epoch rev: 34575
Checksum: 346
Satellite: RS-30
Catalog number: 32953
Epoch time: 14261.43405291
Element set: 298
Inclination: 082.5114 deg
RA of node: 143.2506 deg
Eccentricity: 0.0018680
Arg of perigee: 317.8673 deg
Mean anomaly: 042.0969 deg
Mean motion: 12.43050421 rev/day
Decay rate: 1.0e-07 rev/day^2
Epoch rev: 28684
Checksum: 278
Satellite: METEOR-M
Catalog number: 35865
Epoch time: 14261.39137281
Element set: 900
Inclination: 098.5403 deg
RA of node: 305.9355 deg
Eccentricity: 0.0002259
Arg of perigee: 165.4147 deg
Mean anomaly: 194.7109 deg
Mean motion: 14.21929365 rev/day
Decay rate: 4.0e-08 rev/day^2
Epoch rev: 25958
Checksum: 307
Satellite: RS-38
Catalog number: 35869
Epoch time: 14261.68944980
Element set: 808
Inclination: 098.5310 deg
RA of node: 305.9779 deg
Eccentricity: 0.0004407
Arg of perigee: 170.9816 deg
Mean anomaly: 189.1447 deg
Mean motion: 14.22226757 rev/day
Decay rate: 7.5e-07 rev/day^2
Epoch rev: 25966
Checksum: 356
Satellite: JUGNU
Catalog number: 37839
Epoch time: 14260.80669779
Element set: 693
Inclination: 019.9625 deg
RA of node: 053.5844 deg
Eccentricity: 0.0019100
Arg of perigee: 285.5939 deg
Mean anomaly: 183.4250 deg
Mean motion: 14.12336211 rev/day
Decay rate: 4.27e-06 rev/day^2
Epoch rev: 15166
Checksum: 314
Satellite: SRMSAT
Catalog number: 37841
Epoch time: 14260.86860047
Element set: 694
Inclination: 019.9727 deg
RA of node: 074.3920 deg
Eccentricity: 0.0011762
Arg of perigee: 222.5386 deg
Mean anomaly: 282.5572 deg
Mean motion: 14.10373442 rev/day
Decay rate: 4.06e-06 rev/day^2
Epoch rev: 15146
Checksum: 295
Satellite: RAX-2
Catalog number: 37853
Epoch time: 14246.46374243
Element set: 903
Inclination: 101.7074 deg
RA of node: 313.4726 deg
Eccentricity: 0.0214620
Arg of perigee: 190.2077 deg
Mean anomaly: 294.9792 deg
Mean motion: 14.90101173 rev/day
Decay rate: 5.349e-05 rev/day^2
Epoch rev: 15431
Checksum: 290
Satellite: AUBIESAT
Catalog number: 37854
Epoch time: 14261.12478852
Element set: 896
Inclination: 101.7105 deg
RA of node: 337.3281 deg
Eccentricity: 0.0211019
Arg of perigee: 144.4304 deg
Mean anomaly: 279.9237 deg
Mean motion: 14.91850869 rev/day
Decay rate: 1.2920e-04 rev/day^2
Epoch rev: 15656
Checksum: 311
